User: anonymous   Login
Location: Unspecified
(0.0000°N, 0.0000°E)
Time: 11:33:05
(UTC+02:00)
Language:

Delta 168 - Orbit

View from above orbital plane
View from above orbital plane
View from above satellite
View from above satellite

Ground track
Ground track

The orbit data is extracted from the following two-line orbital elements,

1 14051U 83041B   17296.71318612 +.00001560 +00000-0 +13269-3 0  9997
2 14051 025.3307 064.0320 1096578 099.8400 272.7426 13.08610300595296
Epoch (UTC): 23 October 2017 17:06:59
Eccentricity: 0.1096578
inclination: 25.3307°
perigee height: 394 km
apogee height: 2062 km
right ascension of ascending node: 64.0320°
argument of perigee: 99.8400°
revolutions per day: 13.08610300
mean anomaly at epoch: 272.7426°
orbit number at epoch: 59529

The dashed part of the orbit path shows where the satellite is in the earth's shadow,  

DLR